Weather History for Elefsis, Greece

Change the Weather History Date:

Saturday, October 26, 2013

  Actual Average Record
Temperature  
Mean Temperature 70 °F -  
Max Temperature 77 °F 64 °F 78 °F (2005)
Min Temperature 62 °F 50 °F 46 °F (1996)
Cooling Degree Days 4    
Growing Degree Days 20 (Base 50)    
Moisture  
Dew Point 41 °F    
Average Humidity 38    
Maximum Humidity 52    
Minimum Humidity 22    
Precipitation  
Precipitation 0.00 in - - ()
Sea Level Pressure  
Sea Level Pressure 30.16 in    
Wind  
Wind Speed 10 mph ()    
Max Wind Speed 17 mph    
Max Gust Speed -    
Averages and records for this station are not official NWS values.
T = Trace of Precipitation, MM = Missing Value Source: Averaged Metar Reports

Daily Weather History Graph

Daily Weather History Graph

Search for Another Location

Airport:

Trip Planner

Search our weather history database for the weather conditions in past years. The results will help you decide how hot, cold, wet, or windy it might be!

Date:

Astronomy

Oct. 26, 2013 Rise Set
Actual Time 7:45 AM EEST 6:33 PM EEST
Civil Twilight 7:18 AM EEST 7:00 PM EEST
Nautical Twilight 6:47 AM EEST 7:31 PM EEST
Astronomical Twilight 6:16 AM EEST 8:01 PM EEST
Moon No Moon Rise 1:49 PM EEST (10/26)
Length of Visible Light 11h 42m
Length of Day
10h 48m
Waning Gibbous, 56% of the Moon is Illuminated
Oct 26
Waning Gibbous
Oct 27
Last Quarter
Nov 3
New
Nov 10
First Quarter
Nov 17
Full

Hourly Weather History & Observations

Time (EEST) Temp. Dew Point Humidity Pressure Visibility Wind Dir Wind Speed Gust Speed Precip Events Conditions
12:50 AM 64.4 °F 39.2 °F 40% 30.15 in - NW 8.1 mph - N/A   Clear
1:50 AM 62.6 °F 41.0 °F 45% 30.15 in - NNW 8.1 mph - N/A   Clear
2:50 AM 64.4 °F 41.0 °F 42% 30.15 in - NNW 9.2 mph - N/A   Clear
3:50 AM 64.4 °F 42.8 °F 45% 30.15 in - NW 10.4 mph - N/A   Clear
4:50 AM 62.6 °F 41.0 °F 45% 30.15 in - NW 10.4 mph - N/A   Clear
5:50 AM 64.4 °F 41.0 °F 42% 30.15 in - NW 10.4 mph - N/A   Clear
6:20 AM 64.4 °F 41.0 °F 42% 30.15 in - NW 10.4 mph - N/A   Clear
6:50 AM 62.6 °F 44.6 °F 52% 30.15 in - NNW 10.4 mph - N/A   Clear
7:20 AM 62.6 °F 44.6 °F 52% 30.15 in - North 8.1 mph - N/A   Clear
7:50 AM 62.6 °F 42.8 °F 48% 30.15 in - NW 9.2 mph - N/A   Clear
8:20 AM 62.6 °F 42.8 °F 48% 30.15 in - NNW 12.7 mph - N/A   Clear
8:50 AM 64.4 °F 42.8 °F 45% 30.15 in - North 13.8 mph - N/A   Clear
9:20 AM 66.2 °F 42.8 °F 43% 30.18 in - North 10.4 mph - N/A   Clear
9:50 AM 66.2 °F 44.6 °F 46% 30.18 in - NNW 13.8 mph - N/A   Clear
10:20 AM 68.0 °F 42.8 °F 40% 30.18 in - North 11.5 mph - N/A   Clear
10:50 AM 68.0 °F 44.6 °F 43% 30.18 in - North 15.0 mph - N/A   Clear
11:20 AM 68.0 °F 44.6 °F 43% 30.18 in - North 15.0 mph - N/A   Clear
11:50 AM 69.8 °F 46.4 °F 43% 30.18 in - North 15.0 mph - N/A   Clear
12:20 PM 71.6 °F 46.4 °F 41% 30.18 in - NNW 15.0 mph - N/A   Clear
12:50 PM 71.6 °F 46.4 °F 41% 30.18 in - NNW 17.3 mph - N/A   Clear
1:20 PM 71.6 °F 46.4 °F 41% 30.18 in - NNW 13.8 mph - N/A   Clear
2:20 PM 75.2 °F 41.0 °F 29% 30.18 in - NNW 11.5 mph - N/A   Clear
2:50 PM 75.2 °F 39.2 °F 27% 30.15 in - North 11.5 mph - N/A   Clear
3:20 PM 77.0 °F 41.0 °F 28% 30.15 in - NNW 11.5 mph - N/A   Clear
3:50 PM 77.0 °F 39.2 °F 26% 30.15 in - NNW 11.5 mph - N/A   Clear
4:20 PM 77.0 °F 35.6 °F 22% 30.15 in - NNW 11.5 mph - N/A   Clear
4:50 PM 75.2 °F 35.6 °F 24% 30.12 in - NNW 11.5 mph - N/A   Clear
5:20 PM 75.2 °F 35.6 °F 24% 30.12 in - NW 12.7 mph - N/A   Clear
5:50 PM 73.4 °F 33.8 °F 23% 30.12 in - NNW 11.5 mph - N/A   Clear
6:20 PM 71.6 °F 41.0 °F 33% 30.12 in - NW 11.5 mph - N/A   Clear
6:50 PM 69.8 °F 39.2 °F 33% 30.12 in - NNW 11.5 mph - N/A   Clear
7:20 PM 69.8 °F 39.2 °F 33% 30.15 in - NNW 8.1 mph - N/A   Clear
7:50 PM 68.0 °F 41.0 °F 37% 30.15 in - NNW 5.8 mph - N/A   Clear
8:20 PM 66.2 °F 41.0 °F 40% 30.15 in - NW 8.1 mph - N/A   Clear
8:50 PM 68.0 °F 41.0 °F 37% 30.15 in - NNW 9.2 mph - N/A   Clear
9:20 PM 66.2 °F 39.2 °F 37% 30.15 in - NW 9.2 mph - N/A   Clear
9:50 PM 64.4 °F 35.6 °F 34% 30.18 in - NW 6.9 mph - N/A   Clear
10:20 PM 66.2 °F 35.6 °F 32% 30.18 in - NW 6.9 mph - N/A   Clear
10:50 PM 64.4 °F 35.6 °F 34% 30.18 in - NW 5.8 mph - N/A   Clear
11:20 PM 64.4 °F 37.4 °F 37% 30.18 in - NW 5.8 mph - N/A   Clear
11:50 PM 64.4 °F 37.4 °F 37% 30.15 in - NNW 5.8 mph - N/A   Clear